This is the latest recevied weather packets stored in our database for station/object W7TTE. If no packets are shown the sender has not sent any weather packets the latest 10 day(s).
| Time | Temp. | Humidity | Pressure | Rain* | Wind** | Luminosity | Snow |
|---|---|---|---|---|---|---|---|
| 1777762111 | 35° C | 16% | 1011.7 hPa | 0 mm | - | 427 W/m² | - |
| 1777761807 | 35.56° C | 17% | 1011.9 hPa | 0 mm | - | 422 W/m² | - |
| 1777761505 | 35° C | 17% | 1011.8 hPa | 0 mm | - | 475 W/m² | - |
| 1777761203 | 35.56° C | 16% | 1012.1 hPa | 0 mm | - | 527 W/m² | - |
| 1777760900 | 36.11° C | 15% | 1012.2 hPa | 0 mm | - | 456 W/m² | - |
| 1777760598 | 35° C | 16% | 1012.1 hPa | 0 mm | - | 440 W/m² | - |
| 1777760293 | 35.56° C | 16% | 1012.4 hPa | 0 mm | - | 552 W/m² | - |
| 1777759989 | 35.56° C | 16% | 1012.2 hPa | 0 mm | - | 472 W/m² | - |
| 1777759687 | 35° C | 16% | 1012.4 hPa | 0 mm | - | 583 W/m² | - |
| 1777759382 | 35.56° C | 16% | 1012.5 hPa | 0 mm | - | 593 W/m² | - |
| 1777759079 | 35° C | 16% | 1012.5 hPa | 0 mm | - | 609 W/m² | - |
| 1777758777 | 35.56° C | 16% | 1012.8 hPa | 0 mm | - | 608 W/m² | - |
| 1777758474 | 35° C | 16% | 1012.8 hPa | 0 mm | - | 599 W/m² | - |
| 1777758170 | 35° C | 16% | 1012.8 hPa | 0 mm | - | 533 W/m² | - |
| 1777757868 | 35° C | 16% | 1012.8 hPa | 0 mm | - | 593 W/m² | - |
| 1777757565 | 35° C | 16% | 1012.8 hPa | 0 mm | - | 575 W/m² | - |
| 1777757264 | 35° C | 15% | 1013.1 hPa | 0 mm | - | 637 W/m² | - |
| 1777756962 | 35.56° C | 15% | 1013.1 hPa | 0 mm | - | 567 W/m² | - |
| 1777756657 | 36.11° C | 15% | 1013.1 hPa | 0 mm | - | 633 W/m² | - |
| 1777756354 | 36.11° C | 15% | 1013.1 hPa | 0 mm | - | 639 W/m² | - |
| 1777756051 | 35.56° C | 15% | 1013.4 hPa | 0 mm | - | 602 W/m² | - |
| 1777755749 | 35° C | 15% | 1013.7 hPa | 0 mm | - | 699 W/m² | - |
| 1777755446 | 35° C | 16% | 1013.5 hPa | 0 mm | - | 723 W/m² | - |
| 1777755142 | 35° C | 16% | 1013.4 hPa | 0 mm | - | 730 W/m² | - |
| 1777754840 | 34.44° C | 17% | 1013.6 hPa | 0 mm | - | 734 W/m² | - |
* Rain latest hour (hover to see other rain measurements)
** Current wind speed in m/s (hover to see current wind gust speed)